This is the latest recevied weather packets stored in our database for station/object WC4PEM-11. If no packets are shown the sender has not sent any weather packets the latest 10 day(s).
| Time | Temp. | Humidity | Pressure | Rain* | Wind** | Luminosity | Snow |
|---|---|---|---|---|---|---|---|
| 1787589204 | 32.78° C | 61% | 1017.7 hPa | 0 mm | - | - | - |
| 1787588904 | 32.78° C | 62% | 1017.8 hPa | 0 mm | - | - | - |
| 1787588604 | 32.22° C | 62% | 1017.9 hPa | 0 mm | - | - | - |
| 1787588304 | 32.78° C | 62% | 1018 hPa | 0 mm | - | - | - |
| 1787588004 | 32.22° C | 62% | 1018 hPa | 0 mm | - | - | - |
| 1787587704 | 32.22° C | 65% | 1018 hPa | 0 mm | - | - | - |
| 1787587404 | 31.67° C | 65% | 1018.1 hPa | 0 mm | - | - | - |
| 1787587104 | 31.67° C | 67% | 1018.2 hPa | 0 mm | - | - | - |
| 1787586804 | 31.11° C | 68% | 1018.2 hPa | 0 mm | - | - | - |
| 1787586504 | 31.11° C | 70% | 1018.2 hPa | 0 mm | - | - | - |
| 1787586204 | 30.56° C | 68% | 1018.3 hPa | 0 mm | - | - | - |
| 1787585904 | 30.56° C | 69% | 1018.4 hPa | 0 mm | - | - | - |
| 1787585604 | 30.56° C | 70% | 1018.3 hPa | 0 mm | - | - | - |
| 1787585304 | 30° C | 70% | 1018.3 hPa | 0 mm | - | - | - |
| 1787585004 | 30° C | 73% | 1018.4 hPa | 0 mm | - | - | - |
| 1787584704 | 29.44° C | 74% | 1018.4 hPa | 0 mm | - | - | - |
| 1787584404 | 29.44° C | 74% | 1018.3 hPa | 0 mm | - | - | - |
| 1787584104 | 29.44° C | 75% | 1018.3 hPa | 0 mm | - | - | - |
| 1787583933 | 29.44° C | 73% | 1018.2 hPa | 0 mm | - | - | - |
| 1787583804 | 29.44° C | 73% | 1018.2 hPa | 0 mm | - | - | - |
| 1787583638 | 29.44° C | 76% | 1018.2 hPa | 0 mm | - | - | - |
| 1787583504 | 29.44° C | 76% | 1018.2 hPa | 0 mm | - | - | - |
| 1787583204 | 28.89° C | 75% | 1018.3 hPa | 0 mm | - | - | - |
| 1787582904 | 28.89° C | 75% | 1018.3 hPa | 0 mm | - | - | - |
| 1787582604 | 28.89° C | 78% | 1018.3 hPa | 0 mm | - | - | - |
* Rain latest hour (hover to see other rain measurements)
** Current wind speed in m/s (hover to see current wind gust speed)